SCP
0 0 0 0 0 0 0 0 0 0 0 0 0 0 0 0 0 0 0 0 0 0 0 0 0 0 0 0 0 0 0 0 0 0 0 0 0 0 0 0 0 -0 -0 0 0 0 0 0 0 0 0 0 -0 -0
0 0 0 0 0 0 0 0 0 0 0 0 0 0 0 0 0 0 0 0 0 0 0 0 0 0 0 0 0 0 0 0 0 0 0 0 0 0 0 0 0 -0 0 0 0 0 0 0 0 0 0 -0 -0 -0
0 0 0 0 0 0 0 0 0 0 0 0 0 0 0 0 0 0 0 0 0 0 0 0 0 0 0 0 0 0 0 0 0 0 0 0 0 0 0 0 0 0 0 0 0 0 0 0 0 0 0 -0 -0 -0
0 0 0 0 0 0 0 0 0 0 0 0 0 0 0 0 0 0 0 0 0 0 0 0 0 0 0 0 0 0 0 0 0 0 0 0 0 0 0 0 0 0 0 0 0 0 0 0 -0 0 0 -0 -0 0
0 0 0 0 0 0 0 0 0 0 0 0 0 0 0 0 0 0 0 0 0 0 0 0 0 0 0 0 0 0 0 0 0 0 0 0 0 0 0 0 0 0 -0 0 0 0 0 0 -0 -0 0 -0 -0 -0
0 0 0 0 0 0 0 0 0 0 0 0 0 0 0 0 0 0 0 0 0 0 0 0 0 0 0 0 0 0 0 0 0 0 0 0 0 0 0 0 0 0 0 0 0 0 0 0 0 0 0 0 -0 -0
0 0 0 0 0 0 0 0 0 0 0 0 0 0 0 0 0 0 0 0 0 0 0 0 0 0 0 0 0 0 0 0 0 0 0 0 0 0 0 0 0 -0 0 0 0 0 0 0 0 0 0 0 -0 -0
0 0 0 0 0 0 0 0 0 0 0 0 0 0 0 0 0 0 0 0 0 0 0 0 0 0 0 0 0 0 0 0 0 0 0 0 0 0 0 0 0 0 -0 -0 -0 -0 0 -0 0 0 0 -0 0 0
0 0 0 0 0 0 0 0 0 0 0 0 0 0 0 0 0 0 0 0 0 0 0 0 0 0 0 0 0 0 0 0 0 0 0 0 0 0 0 0 0 0 -0 -0 -0 -0 -0 0 -0 -0 0 0 -0 0
0 0 0 0 0 0 0 0 0 0 0 0 0 0 0 0 0 0 0 0 0 0 0 0 0 0 0 0 0 0 0 0 0 0 0 0 0 0 0 0 0 0 -0 -0 -0 0 -0 0 -0 0 0 0 0 0
0 0 0 0 0 0 0 0 0 0 0 0 0 0 0 0 0 0 0 0 0 0 0 0 0 0 0 0 0 0 0 0 0 -0 0 0 0 0 0 0 0 0 -0 -0 -0 -0 -0 0 -0 0 0 0 0 0
0 0 0 0 0 0 0 0 0 0 0 0 0 0 0 0 0 0 0 0 0 0 0 0 0 0 0 0 0 0 0 0 0 0 0 0 0 0 0 0 0 0 -0 -0 0 0 0 0 -0 0 0 0 0 0
0 0 0 0 0 0 0 0 0 0 0 0 0 0 0 0 0 0 0 0 0 0 0 0 0 0 0 -0 0 0 0 -0 0 0 0 0 0 0 0 0 0 0 -0 -0 0 0 0 0 0 0 0 0 0 0
0 0 0 0 0 0 0 0 0 0 0 0 0 0 0 0 0 0 0 0 0 0 0 0 0 0 0 -0 0 -0 -0 -0 -0 -0 -0 -0 -0 0 0 0 0 0 -0 -0 0 0 0 0 0 0 0 0 0 0
0 0 0 0 0 0 0 0 0 0 0 0 0 0 0 0 0 0 0 0 0 -0 -0 0 0 0 0 -0 0 0 -0 -0 0 0 0 -0 -0 0 0 0 0 0 -0 -0 0 -0 -0 0 0 0 0 0 0 0
0 0 0 0 0 0 0 0 0 0 0 0 0 0 0 0 0 0 0 0 0 -0 -0 0 0 0 -0 -0 0 0 0 0 0 -0 -0 0 0 0 0 0 0 0 0 -0 0 -0 0 -0 0 0 0 0 0 0
0 0 0 0 0 0 0 0 0 0 0 0 0 0 0 0 0 0 0 0 0 -0 -0 0 0 -0 0 -0 0 -0 -0 -0 0 -0 -0 -0 -0 -0 0 0 0 0 0 0 -0 -0 -0 0 -0 0 0 0 0 0
0 0 0 0 0 0 0 0 0 0 0 0 0 0 0 0 0 0 0 0 0 0 0 0 0 0 0 -0 -0 -0 -0 -0 0 -0 -0 0 -0 0 0 0 0 0 0 0 -0 -0 -0 -0 0 0 0 0 0 0
0 0 0 0 0 0 0 0 0 0 0 0 0 0 0 0 0 0 0 0 0 0 0 0 0 -0 0 0 -0 -0 -0 -0 0 0 0 0 -0 0 0 0 0 0 0 0 -0 -0 -0 -0 0 0 0 0 0 0
0 0 0 0 0 0 0 0 0 0 0 0 0 0 0 0 0 0 0 0 0 0 0 0 0 0 0 0 0 0 -0 -0 0 0 0 0 -0 -0 -0 0 0 0 0 0 0 -0 0 -0 -0 0 0 0 0 0
0 0 0 0 0 0 0 0 0 0 0 0 0 0 0 0 0 0 0 0 0 0 0 0 0 0 0 -0 -0 -0 -0 0 0 0 0 0 -0 -0 -0 0 0 0 0 0 0 0 -0 -0 -0 -0 -0 0 0 0
0 0 0 0 0 0 0 0 0 0 0 0 0 0 0 0 0 0 0 0 0 0 0 0 0 0 0 0 0 -0 0 0 0 0 0 -0 0 -0 -0 0 0 0 0 0 0 0 0 0 -0 -0 -0 -0 0 0
0 0 0 0 0 0 0 0 0 0 0 0 0 0 0 0 0 0 -0 0 0 0 0 0 0 0 0 0 0 0 0 0 0 0 -0 -0 0 -0 0 0 -0 0 0 0 0 0 0 0 0 -0 -0 -0 -0 -0
0 0 0 0 0 0 0 0 0 0 0 0 0 0 0 0 -0 0 0 0 0 0 0 0 0 0 0 0 0 0 0 0 0 0 0 -0 -0 -0 -0 -0 0 0 0 0 0 0 0 0 0 0 0 -0 -0 -0
0 0 0 0 0 0 0 0 0 0 0 0 0 0 0 -0 -0 0 0 0 0 0 0 0 0 0 0 0 0 0 0 0 0 -0 -0 0 0 0 0 0 0 0 0 0 0 0 0 0 0 0 0 0 -0 -0
0 0 0 -0 0 0 -0 -0 -0 -0 -0 -0 -0 -0 0 -0 0 0 0 0 0 -0 0 0 -0 0 0 0 0 0 0 0 -0 -0 -0 0 0 0 0 0 0 -0 0 0 0 0 0 0 0 0 0 -0 -0 0
0 0 0 0 0 0 0 0 -0 -0 -0 0 0 0 0 0 0 0 0 0 -0 0 0 0 0 0 0 0 0 0 0 0 -0 0 0 0 0 0 0 0 0 0 0 0 0 0 0 0 0 0 0 0 0 -0
0 0 0 0 0 0 0 0 0 0 0 0 0 0 0 0 0 -0 -0 0 -0 -0 0 0 0 0 0 0 0 0 0 0 0 0 0 0 0 0 0 0 0 0 0 0 0 0 0 0 0 0 0 0 0 0
0 0 0 0 0 0 0 0 0 0 0 0 0 0 0 0 0 0 0 0 0 0 0 0 0 0 0 0 0 0 0 0 0 0 0 0 0 0 0 0 0 0 0 0 0 0 0 0 0 0 0 0 0 0
0 0 0 0 0 0 0 0 0 0 0 0 0 0 0 0 0 0 0 0 0 0 0 0 0 0 0 0 0 0 0 0 0 0 0 0 0 0 0 0 0 0 0 0 0 0 0 0 0 0 0 0 0 0
0 0 0 0 0 0 0 0 0 0 0 0 0 0 0 0 0 0 0 0 0 0 0 0 0 0 0 0 -0 -0 0 0 0 0 0 0 0 0 0 0 -0 0 0 0 0 0 0 0 0 0 0 0 0 0
0 0 0 0 0 0 0 0 0 0 0 0 0 0 0 0 0 0 0 0 0 0 0 0 0 0 0 0 0 0 0 0 0 0 0 0 0 0 0 0 0 0 0 0 0 0 0 0 0 0 0 0 0 0
0 0 0 0 0 0 0 0 0 0 0 0 0 0 0 0 0 0 0 0 0 0 0 0 0 0 0 0 0 0 0 0 0 0 -0 -0 0 0 0 0 0 0 0 0 0 0 0 0 0 0 0 0 0 0
Wind_Speed_500mb
42 41 41 41 41 40 42 42 42 43 42 41 40 39 38 36 35 31 33 20 23 27 61 64 63 53 37 31 13 28 23 3 4 4 1 5 5 6 3 9 10 8 9 6 8 8 12 13 35 23 22 68 74 95
40 38 38 38 39 40 40 42 42 41 41 41 40 39 39 39 37 32 40 25 28 38 61 80 86 81 77 76 68 23 14 8 10 2 5 5 6 3 7 6 6 8 13 11 7 16 49 56 41 61 64 67 80 88
35 36 36 37 38 40 41 40 40 40 41 40 38 37 39 40 38 28 37 36 37 43 63 35 41 31 25 28 17 22 22 25 17 21 8 3 10 5 4 9 9 10 8 8 11 17 24 47 41 60 77 78 101 91
32 33 36 37 39 40 41 40 39 38 39 39 39 38 37 36 33 27 28 30 33 25 13 19 22 71 47 36 40 54 65 46 37 33 13 8 6 16 6 11 11 17 6 7 17 24 36 12 58 72 89 99 90 93
32 32 35 36 39 40 40 40 39 38 39 39 38 37 35 31 24 21 24 28 24 17 12 43 74 11 7 19 22 32 48 57 27 9 9 6 8 2 7 4 8 10 10 5 17 19 17 42 66 75 85 85 87 85
32 34 35 35 37 39 39 41 39 39 38 38 38 38 37 22 20 18 7 2 6 32 17 10 29 21 25 33 26 25 32 36 27 15 12 12 20 9 8 6 16 16 16 24 14 46 51 52 58 72 80 77 74 72
32 34 36 37 37 36 38 39 38 38 37 35 36 38 37 28 20 11 11 17 32 33 10 15 15 17 36 23 10 3 22 20 21 12 11 11 13 11 5 13 10 19 18 24 29 40 28 40 50 65 68 69 66 70
33 34 36 35 37 38 39 37 38 37 37 37 36 37 36 33 22 10 11 16 18 11 10 7 9 20 18 16 13 5 9 18 19 12 7 7 5 8 8 16 16 12 15 19 25 31 36 49 51 55 62 70 74 72
35 34 36 37 39 41 39 37 38 37 35 37 35 36 32 4 3 5 24 35 25 19 7 9 6 9 25 13 14 10 9 6 9 6 6 6 4 9 13 11 13 15 11 24 31 33 36 41 44 51 60 71 62 58
35 34 35 38 38 36 35 34 34 35 33 32 29 7 7 4 16 31 8 6 10 9 11 9 7 9 17 11 10 10 6 4 3 8 6 6 8 17 15 4 6 12 16 23 27 35 39 40 40 45 47 54 54 51
34 34 36 36 34 32 30 30 32 33 27 17 8 8 14 27 21 6 6 7 8 6 10 11 18 10 15 7 6 9 6 4 4 7 6 4 7 4 7 1 8 13 16 20 21 25 24 24 28 35 40 45 46 45
36 34 34 34 30 29 26 26 26 27 22 21 21 27 17 7 6 5 5 6 7 5 4 7 15 24 16 14 11 10 6 0 10 6 2 6 6 2 11 1 9 11 16 19 21 24 22 22 22 26 32 36 38 37
34 32 31 29 29 29 24 23 20 21 22 11 6 8 8 6 2 6 7 4 3 4 10 21 20 12 11 17 12 5 7 9 2 2 6 7 4 12 9 1 6 7 15 18 19 20 19 18 18 20 25 29 29 31
32 30 32 32 35 29 23 21 17 14 9 6 6 11 8 7 8 8 3 2 4 10 41 44 21 11 8 5 4 6 8 4 5 2 5 8 10 13 7 1 7 6 14 16 16 18 17 15 16 17 22 21 27 32
34 31 31 34 29 24 23 21 14 7 6 7 6 9 9 19 12 10 19 23 27 26 32 35 23 12 6 6 5 6 7 7 6 6 6 39 9 7 3 1 5 10 12 15 14 17 16 14 14 16 20 23 18 26
27 29 35 26 21 20 18 17 14 11 7 9 13 11 23 15 22 27 28 26 30 17 37 16 9 7 8 5 5 8 8 6 8 14 50 29 11 6 1 3 4 8 8 11 12 15 13 13 12 15 16 25 26 14
29 34 26 15 17 11 8 14 13 13 12 11 19 34 43 35 36 44 32 24 18 22 4 8 8 10 8 5 6 5 2 5 37 62 56 17 11 5 5 3 4 7 6 8 10 9 10 14 12 13 13 18 23 28
35 31 23 17 22 19 14 14 9 11 13 25 16 38 43 47 54 61 50 46 34 20 9 8 11 7 8 6 5 7 12 21 40 44 43 14 8 7 6 4 4 10 10 10 9 5 4 8 10 7 9 12 9 13
40 35 27 21 11 12 7 11 16 11 24 26 36 47 51 53 54 61 59 52 44 38 12 9 10 8 8 14 8 16 4 27 35 49 37 10 9 10 9 7 5 9 11 13 11 7 8 3 5 8 6 12 11 14
32 29 24 19 29 14 8 10 12 13 10 11 23 34 29 34 50 51 51 48 38 14 17 11 10 20 17 17 14 20 22 30 35 37 39 15 15 15 11 7 8 6 7 9 9 9 7 6 4 2 6 3 9 14
29 30 24 26 34 32 10 12 14 13 13 15 23 25 20 32 48 56 57 40 30 16 17 52 60 56 57 59 52 56 43 39 47 40 40 18 20 18 17 14 12 7 4 3 5 5 9 9 7 7 6 4 6 12
43 33 33 37 28 15 21 22 14 8 12 20 28 34 23 17 36 35 34 28 21 47 46 56 69 75 81 75 78 72 57 51 48 43 33 25 15 26 29 25 20 14 9 6 4 2 6 7 10 14 15 11 4 6
46 42 40 29 24 18 10 20 15 12 8 9 8 7 9 10 16 21 12 19 31 53 60 66 71 70 70 64 56 53 51 42 37 36 32 29 33 27 25 31 27 21 16 12 10 9 6 6 11 14 12 11 10 10
57 30 17 15 24 9 9 13 12 10 11 7 6 9 9 13 20 13 10 29 56 51 50 55 57 60 55 55 59 53 42 34 34 30 30 27 28 25 22 27 28 25 18 13 14 13 13 15 15 17 20 20 20 15
17 14 12 12 15 11 10 8 10 10 10 10 7 9 8 12 5 7 9 25 24 29 28 36 44 53 51 45 42 40 34 29 31 32 24 24 19 17 20 24 25 27 26 26 26 24 21 21 25 26 26 26 27 28
11 21 20 23 14 12 12 7 11 15 7 8 11 11 5 5 9 12 6 9 16 21 17 10 21 37 40 38 33 29 24 23 27 30 26 25 21 21 23 23 23 26 26 25 24 24 26 27 29 32 34 33 33 32
8 13 18 21 12 11 9 17 19 8 8 7 6 4 6 9 10 7 17 20 21 32 22 8 14 19 24 26 24 24 20 29 31 28 19 20 18 18 19 17 10 6 15 19 19 18 20 22 26 31 33 31 28 33
14 8 14 22 22 22 4 5 8 8 8 10 6 9 6 4 5 16 49 55 38 16 17 12 28 27 22 20 17 21 21 21 21 18 13 13 14 21 20 17 15 14 16 17 13 11 13 12 15 17 19 27 25 27
14 13 14 14 17 18 22 15 12 16 12 19 6 5 6 9 59 65 40 27 9 9 9 13 22 19 14 16 19 22 25 16 14 19 16 14 14 13 15 15 15 16 18 22 21 18 10 10 10 10 11 14 19 22
13 26 14 10 9 11 21 34 19 32 22 15 13 13 31 49 26 36 24 22 21 21 19 19 23 16 17 19 29 29 22 16 13 19 19 14 9 8 9 10 11 14 15 17 24 33 23 26 19 17 17 19 22 23
11 14 14 17 11 29 52 42 26 21 31 33 32 29 24 11 17 45 38 30 23 21 14 17 21 25 30 31 27 21 23 26 20 15 11 8 6 10 13 16 16 15 11 14 12 16 20 28 28 23 19 23 26 23
9 12 7 4 4 6 15 10 12 11 2 8 18 19 11 8 10 21 35 22 20 19 15 14 21 25 20 17 29 30 30 26 18 9 3 7 10 13 16 20 20 18 14 9 9 7 24 29 26 29 21 27 30 25
7 10 10 8 3 6 9 7 5 7 10 12 18 23 17 10 8 22 15 15 10 9 13 18 24 25 25 27 31 27 20 14 10 8 9 11 13 13 12 9 3 8 9 8 5 9 14 30 28 29 26 22 28 27
Wind_Direction_500mb
291 297 302 306 311 316 319 321 323 325 326 328 329 327 325 324 322 312 305 283 280 270 283 276 278 277 276 271 276 302 330 261 291 308 325 299 243 256 353 236 275 283 298 281 268 274 285 303 326 324 292 297 301 300
288 295 299 304 310 313 315 319 321 324 324 326 327 325 324 322 318 310 297 301 288 278 268 285 289 286 275 271 267 257 245 299 285 288 229 258 271 289 213 276 198 275 219 285 261 267 292 312 306 303 301 292 301 303
286 291 297 303 308 311 314 317 318 321 322 324 325 325 323 319 314 304 296 305 306 289 298 280 296 307 284 277 275 237 243 236 234 273 269 238 259 167 255 246 273 275 203 238 297 272 300 312 314 313 315 310 313 311
282 291 297 302 306 309 310 312 315 318 318 321 323 324 324 322 314 306 294 307 295 290 284 288 308 305 300 274 256 246 254 249 264 284 292 253 244 206 249 263 253 270 322 256 260 284 318 304 323 321 325 327 325 330
278 286 290 298 303 306 310 311 313 314 315 317 319 321 325 325 324 323 302 295 287 267 286 298 309 329 319 323 289 258 243 247 248 242 230 238 234 208 242 265 262 200 230 267 298 336 306 308 322 333 330 332 341 345
279 282 286 293 298 303 310 311 313 312 315 317 317 318 321 314 310 336 314 233 3 342 305 299 310 282 319 326 310 264 234 233 211 207 230 240 233 185 266 259 262 258 277 280 282 312 316 322 329 342 345 348 359 13
273 281 287 291 297 303 306 309 310 308 310 312 315 312 312 306 291 269 263 285 301 310 281 295 290 294 325 337 318 287 208 203 203 231 232 238 236 206 240 262 248 316 318 311 322 326 323 335 335 350 6 12 27 50
269 276 282 291 298 302 303 306 304 308 313 314 315 311 306 301 295 282 252 263 312 307 259 275 282 308 340 318 312 266 205 203 216 234 244 229 219 204 259 257 305 320 328 323 335 326 323 329 344 3 19 29 35 40
270 275 284 293 296 300 303 305 306 307 314 314 314 311 302 270 228 267 294 295 287 226 256 247 297 289 327 310 290 279 228 243 225 224 234 171 204 229 242 295 334 354 354 324 335 334 337 342 352 11 18 31 46 40
269 277 284 292 296 298 300 303 303 308 318 317 317 335 276 236 292 308 297 242 187 208 230 254 268 271 315 316 293 303 257 273 266 243 163 208 259 263 279 287 353 17 5 344 348 344 345 350 1 12 24 32 38 54
268 273 283 291 293 294 297 298 303 313 329 337 325 266 271 291 294 247 252 219 176 233 226 247 240 254 273 248 284 271 288 268 273 266 173 256 279 250 192 196 15 20 8 349 351 343 346 346 2 11 24 30 39 53
265 273 283 292 290 291 296 295 303 316 330 324 302 297 307 293 239 239 241 191 205 246 207 283 279 260 263 238 244 254 257 179 253 154 181 276 257 198 171 140 16 25 360 350 352 349 353 349 12 23 28 32 33 48
266 269 282 290 291 293 293 288 293 309 322 315 280 267 252 253 251 242 211 198 256 98 340 318 306 275 248 243 238 269 250 235 112 219 237 245 315 162 165 33 7 25 1 350 357 358 1 356 19 34 39 39 39 43
261 267 277 283 288 291 283 277 283 300 313 277 263 286 210 225 230 223 7 205 279 295 303 312 292 273 276 279 269 274 266 312 262 269 265 328 289 177 171 13 345 15 0 352 6 6 9 11 32 44 45 52 51 57
251 267 273 279 289 281 268 264 265 267 240 261 250 245 243 242 262 262 284 294 293 312 316 312 295 243 257 274 229 299 287 266 14 8 300 331 259 196 183 151 319 336 358 354 5 11 13 24 29 63 58 49 69 72
250 264 269 288 283 264 260 244 192 211 242 232 236 260 250 279 280 276 283 282 314 320 333 278 260 263 244 230 247 230 280 54 344 325 315 318 225 232 258 132 353 2 15 360 3 10 17 35 53 77 80 64 57 89
237 255 279 280 251 245 194 167 175 214 230 220 234 253 263 276 280 281 281 288 303 321 275 283 262 238 304 235 236 163 146 288 314 319 322 290 241 259 159 132 45 38 31 20 14 23 49 40 90 86 91 85 76 77
244 262 264 258 258 239 226 207 238 240 244 236 240 254 253 257 266 275 278 284 282 271 245 250 291 247 243 219 217 196 200 5 333 316 321 269 247 200 154 131 85 59 43 47 39 53 63 56 41 96 91 128 99 99
255 261 260 248 221 191 229 221 219 253 240 251 256 259 263 268 273 278 284 287 279 262 249 243 237 220 221 245 213 201 346 356 313 325 335 263 237 193 161 155 136 84 67 50 52 88 122 51 52 75 69 142 122 104
247 246 238 221 203 210 243 241 230 255 253 253 255 262 261 263 281 282 281 276 259 216 201 220 225 247 245 247 263 205 310 325 309 316 320 260 224 196 190 166 141 122 106 85 60 54 139 176 191 176 136 123 166 137
238 227 209 196 206 213 247 232 237 240 261 251 270 263 265 275 271 266 261 261 216 211 223 228 235 242 251 256 260 265 283 286 289 304 296 295 227 209 198 190 179 185 195 113 94 72 53 79 135 139 154 103 176 157
231 226 214 212 212 223 232 231 226 238 246 252 268 260 260 258 271 271 266 214 222 231 229 236 237 241 248 247 250 252 266 279 291 286 267 262 244 224 216 210 207 208 218 231 241 113 97 103 120 121 105 92 85 163
221 215 206 196 196 222 242 207 205 221 239 246 261 251 252 253 251 258 246 230 242 254 256 256 259 259 256 257 255 254 257 269 271 263 257 249 240 269 243 230 229 226 231 227 227 234 222 178 170 171 173 171 146 115
202 179 189 204 205 219 198 206 216 239 248 256 240 258 255 236 257 238 248 260 263 268 267 258 256 250 246 248 252 254 255 256 256 250 235 239 256 251 232 228 231 232 234 242 244 242 235 231 224 211 204 206 205 198
147 180 194 205 203 205 210 204 206 219 245 219 236 258 260 242 246 255 246 279 282 303 286 259 246 236 237 244 248 249 249 241 232 227 233 248 253 231 218 222 228 229 234 244 249 251 251 245 240 237 229 222 219 219
186 194 193 195 189 200 202 234 208 211 221 220 235 252 273 230 228 247 245 270 295 304 315 315 229 220 228 235 243 219 200 202 213 239 229 224 226 217 215 232 232 225 216 217 236 251 260 259 253 245 240 236 232 230
201 208 207 202 204 200 228 247 256 264 241 234 253 258 235 237 239 249 305 303 330 333 321 311 198 193 199 205 187 179 201 212 216 212 217 222 207 210 222 227 236 260 219 209 214 234 252 261 262 256 245 239 241 234
236 230 196 191 202 215 236 241 223 235 232 216 220 234 251 258 270 315 310 302 324 305 314 159 169 181 220 245 228 197 187 176 182 179 174 171 181 202 206 219 231 242 244 234 237 254 250 255 255 260 257 242 235 229
228 215 201 213 204 208 213 212 226 228 218 194 240 248 245 256 298 300 321 331 13 35 50 119 127 137 143 130 138 158 175 177 196 207 203 191 196 206 197 207 220 230 229 228 231 241 234 231 240 253 248 240 234 231
243 213 213 226 208 226 222 214 233 235 225 273 273 274 289 300 9 45 48 53 59 68 77 98 105 121 131 149 139 134 133 161 170 172 162 143 137 163 201 226 251 263 263 267 240 235 218 189 194 214 218 211 211 203
243 207 207 206 233 243 249 247 239 265 282 287 279 269 279 322 30 31 41 48 50 47 81 116 119 115 114 123 135 138 135 138 125 125 127 144 195 236 250 252 251 243 270 275 280 227 202 205 211 214 232 207 191 186
231 230 253 268 226 176 131 170 165 180 297 3 14 23 26 42 48 25 19 45 61 68 74 121 142 143 135 96 116 118 117 116 111 100 27 312 295 289 276 263 254 249 244 251 272 213 188 210 233 207 218 207 193 188
249 263 264 278 269 213 187 171 124 100 50 20 22 17 20 27 59 19 13 8 14 27 57 104 133 137 131 122 112 101 89 78 54 37 38 38 40 42 42 46 94 181 196 229 225 274 234 224 219 216 203 202 208 206
Wind_Speed_850mb
42 41 41 41 41 40 42 42 42 43 42 41 40 39 38 36 35 31 33 20 23 27 61 64 63 53 37 31 13 28 23 3 4 4 1 5 5 6 3 9 10 8 9 6 8 8 12 13 35 23 22 68 74 95
40 38 38 38 39 40 40 42 42 41 41 41 40 39 39 39 37 32 40 25 28 38 61 80 86 81 77 76 68 23 14 8 10 2 5 5 6 3 7 6 6 8 13 11 7 16 49 56 41 61 64 67 80 88
35 36 36 37 38 40 41 40 40 40 41 40 38 37 39 40 38 28 37 36 37 43 63 35 41 31 25 28 17 22 22 25 17 21 8 3 10 5 4 9 9 10 8 8 11 17 24 47 41 60 77 78 101 91
32 33 36 37 39 40 41 40 39 38 39 39 39 38 37 36 33 27 28 30 33 25 13 19 22 71 47 36 40 54 65 46 37 33 13 8 6 16 6 11 11 17 6 7 17 24 36 12 58 72 89 99 90 93
32 32 35 36 39 40 40 40 39 38 39 39 38 37 35 31 24 21 24 28 24 17 12 43 74 11 7 19 22 32 48 57 27 9 9 6 8 2 7 4 8 10 10 5 17 19 17 42 66 75 85 85 87 85
32 34 35 35 37 39 39 41 39 39 38 38 38 38 37 22 20 18 7 2 6 32 17 10 29 21 25 33 26 25 32 36 27 15 12 12 20 9 8 6 16 16 16 24 14 46 51 52 58 72 80 77 74 72
32 34 36 37 37 36 38 39 38 38 37 35 36 38 37 28 20 11 11 17 32 33 10 15 15 17 36 23 10 3 22 20 21 12 11 11 13 11 5 13 10 19 18 24 29 40 28 40 50 65 68 69 66 70
33 34 36 35 37 38 39 37 38 37 37 37 36 37 36 33 22 10 11 16 18 11 10 7 9 20 18 16 13 5 9 18 19 12 7 7 5 8 8 16 16 12 15 19 25 31 36 49 51 55 62 70 74 72
35 34 36 37 39 41 39 37 38 37 35 37 35 36 32 4 3 5 24 35 25 19 7 9 6 9 25 13 14 10 9 6 9 6 6 6 4 9 13 11 13 15 11 24 31 33 36 41 44 51 60 71 62 58
35 34 35 38 38 36 35 34 34 35 33 32 29 7 7 4 16 31 8 6 10 9 11 9 7 9 17 11 10 10 6 4 3 8 6 6 8 17 15 4 6 12 16 23 27 35 39 40 40 45 47 54 54 51
34 34 36 36 34 32 30 30 32 33 27 17 8 8 14 27 21 6 6 7 8 6 10 11 18 10 15 7 6 9 6 4 4 7 6 4 7 4 7 1 8 13 16 20 21 25 24 24 28 35 40 45 46 45
36 34 34 34 30 29 26 26 26 27 22 21 21 27 17 7 6 5 5 6 7 5 4 7 15 24 16 14 11 10 6 0 10 6 2 6 6 2 11 1 9 11 16 19 21 24 22 22 22 26 32 36 38 37
34 32 31 29 29 29 24 23 20 21 22 11 6 8 8 6 2 6 7 4 3 4 10 21 20 12 11 17 12 5 7 9 2 2 6 7 4 12 9 1 6 7 15 18 19 20 19 18 18 20 25 29 29 31
32 30 32 32 35 29 23 21 17 14 9 6 6 11 8 7 8 8 3 2 4 10 41 44 21 11 8 5 4 6 8 4 5 2 5 8 10 13 7 1 7 6 14 16 16 18 17 15 16 17 22 21 27 32
34 31 31 34 29 24 23 21 14 7 6 7 6 9 9 19 12 10 19 23 27 26 32 35 23 12 6 6 5 6 7 7 6 6 6 39 9 7 3 1 5 10 12 15 14 17 16 14 14 16 20 23 18 26
27 29 35 26 21 20 18 17 14 11 7 9 13 11 23 15 22 27 28 26 30 17 37 16 9 7 8 5 5 8 8 6 8 14 50 29 11 6 1 3 4 8 8 11 12 15 13 13 12 15 16 25 26 14
29 34 26 15 17 11 8 14 13 13 12 11 19 34 43 35 36 44 32 24 18 22 4 8 8 10 8 5 6 5 2 5 37 62 56 17 11 5 5 3 4 7 6 8 10 9 10 14 12 13 13 18 23 28
35 31 23 17 22 19 14 14 9 11 13 25 16 38 43 47 54 61 50 46 34 20 9 8 11 7 8 6 5 7 12 21 40 44 43 14 8 7 6 4 4 10 10 10 9 5 4 8 10 7 9 12 9 13
40 35 27 21 11 12 7 11 16 11 24 26 36 47 51 53 54 61 59 52 44 38 12 9 10 8 8 14 8 16 4 27 35 49 37 10 9 10 9 7 5 9 11 13 11 7 8 3 5 8 6 12 11 14
32 29 24 19 29 14 8 10 12 13 10 11 23 34 29 34 50 51 51 48 38 14 17 11 10 20 17 17 14 20 22 30 35 37 39 15 15 15 11 7 8 6 7 9 9 9 7 6 4 2 6 3 9 14
29 30 24 26 34 32 10 12 14 13 13 15 23 25 20 32 48 56 57 40 30 16 17 52 60 56 57 59 52 56 43 39 47 40 40 18 20 18 17 14 12 7 4 3 5 5 9 9 7 7 6 4 6 12
43 33 33 37 28 15 21 22 14 8 12 20 28 34 23 17 36 35 34 28 21 47 46 56 69 75 81 75 78 72 57 51 48 43 33 25 15 26 29 25 20 14 9 6 4 2 6 7 10 14 15 11 4 6
46 42 40 29 24 18 10 20 15 12 8 9 8 7 9 10 16 21 12 19 31 53 60 66 71 70 70 64 56 53 51 42 37 36 32 29 33 27 25 31 27 21 16 12 10 9 6 6 11 14 12 11 10 10
57 30 17 15 24 9 9 13 12 10 11 7 6 9 9 13 20 13 10 29 56 51 50 55 57 60 55 55 59 53 42 34 34 30 30 27 28 25 22 27 28 25 18 13 14 13 13 15 15 17 20 20 20 15
17 14 12 12 15 11 10 8 10 10 10 10 7 9 8 12 5 7 9 25 24 29 28 36 44 53 51 45 42 40 34 29 31 32 24 24 19 17 20 24 25 27 26 26 26 24 21 21 25 26 26 26 27 28
11 21 20 23 14 12 12 7 11 15 7 8 11 11 5 5 9 12 6 9 16 21 17 10 21 37 40 38 33 29 24 23 27 30 26 25 21 21 23 23 23 26 26 25 24 24 26 27 29 32 34 33 33 32
8 13 18 21 12 11 9 17 19 8 8 7 6 4 6 9 10 7 17 20 21 32 22 8 14 19 24 26 24 24 20 29 31 28 19 20 18 18 19 17 10 6 15 19 19 18 20 22 26 31 33 31 28 33
14 8 14 22 22 22 4 5 8 8 8 10 6 9 6 4 5 16 49 55 38 16 17 12 28 27 22 20 17 21 21 21 21 18 13 13 14 21 20 17 15 14 16 17 13 11 13 12 15 17 19 27 25 27
14 13 14 14 17 18 22 15 12 16 12 19 6 5 6 9 59 65 40 27 9 9 9 13 22 19 14 16 19 22 25 16 14 19 16 14 14 13 15 15 15 16 18 22 21 18 10 10 10 10 11 14 19 22
13 26 14 10 9 11 21 34 19 32 22 15 13 13 31 49 26 36 24 22 21 21 19 19 23 16 17 19 29 29 22 16 13 19 19 14 9 8 9 10 11 14 15 17 24 33 23 26 19 17 17 19 22 23
11 14 14 17 11 29 52 42 26 21 31 33 32 29 24 11 17 45 38 30 23 21 14 17 21 25 30 31 27 21 23 26 20 15 11 8 6 10 13 16 16 15 11 14 12 16 20 28 28 23 19 23 26 23
9 12 7 4 4 6 15 10 12 11 2 8 18 19 11 8 10 21 35 22 20 19 15 14 21 25 20 17 29 30 30 26 18 9 3 7 10 13 16 20 20 18 14 9 9 7 24 29 26 29 21 27 30 25
7 10 10 8 3 6 9 7 5 7 10 12 18 23 17 10 8 22 15 15 10 9 13 18 24 25 25 27 31 27 20 14 10 8 9 11 13 13 12 9 3 8 9 8 5 9 14 30 28 29 26 22 28 27
Wind_Direction_850mb
291 297 302 306 311 316 319 321 323 325 326 328 329 327 325 324 322 312 305 283 280 270 283 276 278 277 276 271 276 302 330 261 291 308 325 299 243 256 353 236 275 283 298 281 268 274 285 303 326 324 292 297 301 300
288 295 299 304 310 313 315 319 321 324 324 326 327 325 324 322 318 310 297 301 288 278 268 285 289 286 275 271 267 257 245 299 285 288 229 258 271 289 213 276 198 275 219 285 261 267 292 312 306 303 301 292 301 303
286 291 297 303 308 311 314 317 318 321 322 324 325 325 323 319 314 304 296 305 306 289 298 280 296 307 284 277 275 237 243 236 234 273 269 238 259 167 255 246 273 275 203 238 297 272 300 312 314 313 315 310 313 311
282 291 297 302 306 309 310 312 315 318 318 321 323 324 324 322 314 306 294 307 295 290 284 288 308 305 300 274 256 246 254 249 264 284 292 253 244 206 249 263 253 270 322 256 260 284 318 304 323 321 325 327 325 330
278 286 290 298 303 306 310 311 313 314 315 317 319 321 325 325 324 323 302 295 287 267 286 298 309 329 319 323 289 258 243 247 248 242 230 238 234 208 242 265 262 200 230 267 298 336 306 308 322 333 330 332 341 345
279 282 286 293 298 303 310 311 313 312 315 317 317 318 321 314 310 336 314 233 3 342 305 299 310 282 319 326 310 264 234 233 211 207 230 240 233 185 266 259 262 258 277 280 282 312 316 322 329 342 345 348 359 13
273 281 287 291 297 303 306 309 310 308 310 312 315 312 312 306 291 269 263 285 301 310 281 295 290 294 325 337 318 287 208 203 203 231 232 238 236 206 240 262 248 316 318 311 322 326 323 335 335 350 6 12 27 50
269 276 282 291 298 302 303 306 304 308 313 314 315 311 306 301 295 282 252 263 312 307 259 275 282 308 340 318 312 266 205 203 216 234 244 229 219 204 259 257 305 320 328 323 335 326 323 329 344 3 19 29 35 40
270 275 284 293 296 300 303 305 306 307 314 314 314 311 302 270 228 267 294 295 287 226 256 247 297 289 327 310 290 279 228 243 225 224 234 171 204 229 242 295 334 354 354 324 335 334 337 342 352 11 18 31 46 40
269 277 284 292 296 298 300 303 303 308 318 317 317 335 276 236 292 308 297 242 187 208 230 254 268 271 315 316 293 303 257 273 266 243 163 208 259 263 279 287 353 17 5 344 348 344 345 350 1 12 24 32 38 54
268 273 283 291 293 294 297 298 303 313 329 337 325 266 271 291 294 247 252 219 176 233 226 247 240 254 273 248 284 271 288 268 273 266 173 256 279 250 192 196 15 20 8 349 351 343 346 346 2 11 24 30 39 53
265 273 283 292 290 291 296 295 303 316 330 324 302 297 307 293 239 239 241 191 205 246 207 283 279 260 263 238 244 254 257 179 253 154 181 276 257 198 171 140 16 25 360 350 352 349 353 349 12 23 28 32 33 48
266 269 282 290 291 293 293 288 293 309 322 315 280 267 252 253 251 242 211 198 256 98 340 318 306 275 248 243 238 269 250 235 112 219 237 245 315 162 165 33 7 25 1 350 357 358 1 356 19 34 39 39 39 43
261 267 277 283 288 291 283 277 283 300 313 277 263 286 210 225 230 223 7 205 279 295 303 312 292 273 276 279 269 274 266 312 262 269 265 328 289 177 171 13 345 15 0 352 6 6 9 11 32 44 45 52 51 57
251 267 273 279 289 281 268 264 265 267 240 261 250 245 243 242 262 262 284 294 293 312 316 312 295 243 257 274 229 299 287 266 14 8 300 331 259 196 183 151 319 336 358 354 5 11 13 24 29 63 58 49 69 72
250 264 269 288 283 264 260 244 192 211 242 232 236 260 250 279 280 276 283 282 314 320 333 278 260 263 244 230 247 230 280 54 344 325 315 318 225 232 258 132 353 2 15 360 3 10 17 35 53 77 80 64 57 89
237 255 279 280 251 245 194 167 175 214 230 220 234 253 263 276 280 281 281 288 303 321 275 283 262 238 304 235 236 163 146 288 314 319 322 290 241 259 159 132 45 38 31 20 14 23 49 40 90 86 91 85 76 77
244 262 264 258 258 239 226 207 238 240 244 236 240 254 253 257 266 275 278 284 282 271 245 250 291 247 243 219 217 196 200 5 333 316 321 269 247 200 154 131 85 59 43 47 39 53 63 56 41 96 91 128 99 99
255 261 260 248 221 191 229 221 219 253 240 251 256 259 263 268 273 278 284 287 279 262 249 243 237 220 221 245 213 201 346 356 313 325 335 263 237 193 161 155 136 84 67 50 52 88 122 51 52 75 69 142 122 104
247 246 238 221 203 210 243 241 230 255 253 253 255 262 261 263 281 282 281 276 259 216 201 220 225 247 245 247 263 205 310 325 309 316 320 260 224 196 190 166 141 122 106 85 60 54 139 176 191 176 136 123 166 137
238 227 209 196 206 213 247 232 237 240 261 251 270 263 265 275 271 266 261 261 216 211 223 228 235 242 251 256 260 265 283 286 289 304 296 295 227 209 198 190 179 185 195 113 94 72 53 79 135 139 154 103 176 157
231 226 214 212 212 223 232 231 226 238 246 252 268 260 260 258 271 271 266 214 222 231 229 236 237 241 248 247 250 252 266 279 291 286 267 262 244 224 216 210 207 208 218 231 241 113 97 103 120 121 105 92 85 163
221 215 206 196 196 222 242 207 205 221 239 246 261 251 252 253 251 258 246 230 242 254 256 256 259 259 256 257 255 254 257 269 271 263 257 249 240 269 243 230 229 226 231 227 227 234 222 178 170 171 173 171 146 115
202 179 189 204 205 219 198 206 216 239 248 256 240 258 255 236 257 238 248 260 263 268 267 258 256 250 246 248 252 254 255 256 256 250 235 239 256 251 232 228 231 232 234 242 244 242 235 231 224 211 204 206 205 198
147 180 194 205 203 205 210 204 206 219 245 219 236 258 260 242 246 255 246 279 282 303 286 259 246 236 237 244 248 249 249 241 232 227 233 248 253 231 218 222 228 229 234 244 249 251 251 245 240 237 229 222 219 219
186 194 193 195 189 200 202 234 208 211 221 220 235 252 273 230 228 247 245 270 295 304 315 315 229 220 228 235 243 219 200 202 213 239 229 224 226 217 215 232 232 225 216 217 236 251 260 259 253 245 240 236 232 230
201 208 207 202 204 200 228 247 256 264 241 234 253 258 235 237 239 249 305 303 330 333 321 311 198 193 199 205 187 179 201 212 216 212 217 222 207 210 222 227 236 260 219 209 214 234 252 261 262 256 245 239 241 234
236 230 196 191 202 215 236 241 223 235 232 216 220 234 251 258 270 315 310 302 324 305 314 159 169 181 220 245 228 197 187 176 182 179 174 171 181 202 206 219 231 242 244 234 237 254 250 255 255 260 257 242 235 229
228 215 201 213 204 208 213 212 226 228 218 194 240 248 245 256 298 300 321 331 13 35 50 119 127 137 143 130 138 158 175 177 196 207 203 191 196 206 197 207 220 230 229 228 231 241 234 231 240 253 248 240 234 231
243 213 213 226 208 226 222 214 233 235 225 273 273 274 289 300 9 45 48 53 59 68 77 98 105 121 131 149 139 134 133 161 170 172 162 143 137 163 201 226 251 263 263 267 240 235 218 189 194 214 218 211 211 203
243 207 207 206 233 243 249 247 239 265 282 287 279 269 279 322 30 31 41 48 50 47 81 116 119 115 114 123 135 138 135 138 125 125 127 144 195 236 250 252 251 243 270 275 280 227 202 205 211 214 232 207 191 186
231 230 253 268 226 176 131 170 165 180 297 3 14 23 26 42 48 25 19 45 61 68 74 121 142 143 135 96 116 118 117 116 111 100 27 312 295 289 276 263 254 249 244 251 272 213 188 210 233 207 218 207 193 188
249 263 264 278 269 213 187 171 124 100 50 20 22 17 20 27 59 19 13 8 14 27 57 104 133 137 131 122 112 101 89 78 54 37 38 38 40 42 42 46 94 181 196 229 225 274 234 224 219 216 203 202 208 206